AEHF-6 (USA 298)

Last updated on Fri Oct 24 2025 00:02:51 GMT+0000 (Coordinated Universal Time)

1 45465U 20022B 25295.99350461 -.00000292 00000+0 00000+0 0 9992 2 45465 3.0818 298.9002 0044703 7.0813 220.9958 1.00266780 20639
UTC large
Height (km)
Speed (km/s)
/
Latitude / Longitude
Inclination (degrees)
Orbital Period (minutes)
Azimuth
Elevation
Range (km)
Doppler Factor

Next 0 passes for location: London (51.5072 / 0.1276)

Sorry there are no passes over London.